Location: Ballingbuur
(53.0000°N, 5.7667°E)
Time: 06:11:58
(UTC+00:00)

ISS - Visible Passes

Search period start: 26 February 2021 00:00
Search period end: 08 March 2021 00:00
Orbit: 417 x 422 km, 51.6° (Epoch: 26 February)

Date Brightness Start Highest point End Pass type
(mag) Time Alt. Az. Time Alt. Az. Time Alt. Az.
26 Feb -2.6 04:37:43 28° SSW 04:38:44 35° SSE 04:41:50 10° E visible
27 Feb -1.8 03:52:10 24° SE 03:52:10 24° SE 03:54:17 10° E visible
27 Feb -3.5 05:25:08 14° WSW 05:27:52 64° S 05:31:14 10° E visible
28 Feb -0.4 03:06:33 10° E 03:06:33 10° E 03:06:37 10° E visible
28 Feb -3.4 04:39:31 39° SW 04:40:27 55° SSE 04:43:45 10° E visible
01 Mar -2.4 03:53:52 36° ESE 03:53:52 36° ESE 03:56:16 10° E visible
01 Mar -3.7 05:26:49 14° W 05:29:41 71° S 05:33:02 10° E visible
02 Mar -0.7 03:08:11 14° E 03:08:11 14° E 03:08:45 10° E visible
02 Mar -3.7 04:41:08 39° WSW 04:42:13 70° S 04:45:34 10° E visible
03 Mar -3.0 03:55:25 48° ESE 03:55:25 48° ESE 03:58:05 10° E visible
03 Mar -3.5 05:28:23 12° W 05:31:26 62° S 05:34:46 10° ESE visible
04 Mar -0.9 03:09:43 17° E 03:09:43 17° E 03:10:35 10° E visible
04 Mar -3.7 04:42:40 34° W 04:43:57 69° S 04:47:19 10° ESE visible
05 Mar -3.3 03:56:57 58° SE 03:56:57 58° SE 03:59:49 10° E visible
05 Mar -3.1 05:29:54 10° W 05:33:05 42° SSW 05:36:17 10° SE visible
06 Mar -1.1 03:11:15 19° E 03:11:15 19° E 03:12:19 10° E visible
06 Mar -3.5 04:44:12 29° WSW 04:45:37 52° SSW 04:48:54 10° ESE visible
07 Mar -3.4 03:58:32 55° SSE 03:58:32 55° SSE 04:01:28 10° ESE visible
07 Mar -2.4 05:31:46 10° W 05:34:34 25° SSW 05:37:23 10° SSE visible
